sat.trackr.live / text

‹ back to catalog

STARLINK-5027

NORAD 55370 · 2023-013AR

PAYLOAD ACTIVE UNKNOWN

§ Identity

Operator
Country
US
Launch date
2023-01-26
Launch site
AFETR
Launch vehicle
Mass (kg)
RCS (m²)

Purposes: comms

External: N2YO · Heavens-Above · Gunter

§ Orbital elements

Epoch: 2026-05-24T23:43:07.773024Z

Period
94.27 min
Inclination
43.0032°
Eccentricity
0.0002049
Mean motion
15.27560178 rev/d
Perigee alt
481.7 km
Apogee alt
484.5 km
Semi-major
6,861.2 km
B*
-6.2804e-5
RAAN
250.5050°
Arg perigee
271.2317°
Mean anomaly
88.8300°
Rev number
18,313

§ Raw data

STARLINK-50271 55370U 23013AR  26144.98828441 -.00001989  00000+0 -62804-4 0  99922 55370  43.0032 250.5050 0002049 271.2317  88.8300 15.27560178183134

JSON: /api/v1/satellites/55370 · /tle

For live sub-satellite position, see the globe view (requires WebGL).

§ Visibility from observer

Set your observer location to see the next 7 days of passes ≥ 10°. The values pass through the URL so the page stays shareable.

No JS? Fill the form by hand. The geolocation button needs JavaScript.